Regional Weather Roundup
Issued by NWS

Home | Current Version | Previous Version | Text Only | Print | Product List | Glossary Off
Versions: 1 2 3 4 5 6 7 8 9 10 11 12 13 14 15 16 17 18 19 20 21 22 23 24 25 26 27 28 29 30 31 32 33 34 35 36 37 38 39 40 41 42 43 44 45 46 47 48 49 50

000
ASUS43 KFSD 180210
RWRSD

WEATHER ROUNDUP FOR SOUTH DAKOTA
NATIONAL WEATHER SERVICE SIOUX FALLS SD
800 PM CST WED DEC 17 2014

NOTE: "FAIR" INDICATES FEW OR NO CLOUDS BELOW 12,000 FEET WITH NO
SIGNIFICANT WEATHER AND/OR OBSTRUCTIONS TO VISIBILITY.


SDZ001>005-009-010-012>017-180300-
NORTHWEST AND NORTH CENTRAL SOUTH DAKOTA

CITY           SKY/WX    TMP DP  RH WIND       PRES   REMARKS
BUFFALO          N/A     20  17  88 S10       29.95S WCI   9
FAITH            N/A     20  15  81 SE13      30.07F WCI   7
MOBRIDGE       MOCLDY    19  11  70 SE10      30.16S WCI   7
$$

SDZ012>016-024>037-041>051-057-063-072>074-180300-
SOUTHWEST AND SOUTH CENTRAL SOUTH DAKOTA

CITY           SKY/WX    TMP DP  RH WIND       PRES   REMARKS
RAPID CTY ARPT CLOUDY    23  20  88 NE5       30.02S WCI  17
PIERRE         CLOUDY    18  15  88 SE12      30.17S WCI   5
CUSTER         CLEAR     21  15  78 SW5       29.89R WCI  15
ELLSWORTH AFB  CLOUDY    22  20  94 E3        30.01S
PHILIP         CLOUDY    21  18  88 E12       30.10S WCI   9
PINE RIDGE     CLEAR     20  17  88 CALM      30.01R
SPEARFISH      CLOUDY    19  18  93 E6        29.97F FOG     WCI  11
WINNER         CLOUDY    22  18  85 SE12      30.15S WCI  10
$$

SDZ004>011-016>023-039-040-180300-
NORTHEAST SOUTH DAKOTA

CITY           SKY/WX    TMP DP  RH WIND       PRES   REMARKS
ABERDEEN       PTCLDY    10   6  84 CALM      30.28F
WATERTOWN      PTCLDY     8   4  83 S3        30.25S
SISSETON         N/A      3  -1  83 CALM      30.29S
$$

SDZ017-020-022-023-036>040-048>070-180300-
SOUTHEAST SOUTH DAKOTA

CITY           SKY/WX    TMP DP  RH WIND       PRES   REMARKS
SIOUX FALLS    CLEAR     11   8  88 NE5       30.24F WCI   3
HURON          MOCLDY     9   6  88 NE3       30.25F FOG
CHAMBERLAIN    CLOUDY    15  13  90 SE9       30.20S WCI   3
MITCHELL       PTCLDY    12   9  87 SE5       30.26F WCI   4
YANKTON        PTCLDY    12   9  85 NE5       30.27S WCI   4
$$

ABBREVIATIONS USED IN REMARKS
   TC - TEMPERATURE IN CELSIUS
  WCI - WIND CHILL INDEX
   HX - HEAT INDEX
  VSB - VISIBILITY



USA.gov is the U.S. government's official web portal to all federal, state and local government web resources and services.